Weather in Voronezh

Russia / Voronezh Oblast     51°39′38″N   39°12′00″E
temp.,
°C
wind,
m/s
gust,
m/s
humid.,
%
clouds,
%
prec.,
mm/h
press.,
hPa
HPBL,
m
12 may, wed
wed1200:00+7ene3888100 0.0 1024288
03:00+7ene3985100 0.0 1024277
06:00+7ene31080100 0.0 1024313
09:00+12ene4661100 0.0 1023682
12:00+14ene3451100 0.0 10201384
15:00+15e344998 0.2 10181613
18:00+15ese465861 0.3 10181194
21:00+11e377855 0.4 1018236
13 may, thu
thu1300:00+11ese41079100 0.0 1017390
03:00+10ese31088100 0.1 1017320
06:00+11ese3118398 0.0 1017407
09:00+14se3869100 0.0 1016509
12:00+19sse475286 0.0 10151467
15:00+19ssw366235 1.3 10151153
18:00+18ssw36795 2.3 1015428
21:00+15s118792 2.7 101611
14 may, fri
fri1400:00+13ene1191100 0.1 101612
03:00+13e2492100 0.1 101677
06:00+13ese289263 0.4 1016207
09:00+18se487695 0.4 1015438
12:00+24se585081 0.0 10141329
15:00+25sse5949100 0.0 10131316
18:00+22sse2766100 0.1 1013251
21:00+20se3107449 0.1 1012227
15 may, sat
sat1500:00+18se39875 0.0 1011213
03:00+16sse2588100 0.0 1011126
06:00+17se268698 0.0 1011202
09:00+19wsw1287100 2.0 1011225
12:00+23sse4666100 0.1 1012814
15:00+24s476010 1.3 10111397
18:00+23sw356340 0.8 1011796
21:00+19wnw11770 0.9 101215
16 may, sun
sun1600:00+17wnw118054 0.0 101325
03:00+16nw118496 0.0 101311
06:00+16n118156 0.0 101328
09:00+21n116011 0.0 1014509
12:00+25nnw1144100 0.0 10131394
15:00+27ne123952 0.0 10121843
18:00+24ene235630 0.1 1012959
21:00+20ne257690 0.1 1012133